Flag for Romania Weather past 2 weeks in Cluj-Napoca, Romania

Now
63 °F

Broken clouds.


Feels Like: 63 °F
Forecast: 57 / 68 °F
Wind: 12 mph from Southwest

Location: Cluj Airport-Napoca

Current Time: May 25, 2015 at 9:08:29 PM

Latest Report: May 25, 2015 at 8:30 PM


Visibility: N/A

Pressure: 29.77 "Hg

Humidity: 94%

Dew point: 61 °F

Location of Cluj-NapocaLocation

Historic Weather in Cluj-Napoca — Graph

°F

Cluj-Napoca temperature yesterday

Maximum temperature yesterday: 75 °F (at 2:30 PM)
Minimum temperature yesterday: 57 °F (at 5:30 AM)
Average temperature yesterday: 67 °F

Past Weeks' High & Low Weather Summary

 TemperatureHumidityPressure
High82 °F (May 20, 4:00 PM)100% (May 11, 10:30 PM)30.36 "Hg (May 11, 10:30 PM)
Low43 °F (May 12, 6:30 AM)37% (May 21, 3:00 PM)29.68 "Hg (May 25, 5:00 PM)
Average62 °F78%30.00 "Hg
* Reported May 10 8:00 PM — May 25 8:00 PM, Cluj-Napoca, Weather by CustomWeather, © 2015

Note: Actual official high and low records may vary slightly from our data, if they occured in-between our weather recording intervals... More about our weather records

Advertising

Cluj-Napoca weather history for previous 24 hours

 ConditionsComfort  
Time TempWeatherWind HumidityBarometerVisibility
8:00 PM
Mon, May 25
64 °FScattered clouds.7 mph83%29.77 "HgN/A
7:30 PM63 °FThundershowers. Broken clouds.7 mph88%29.77 "HgN/A
7:00 PM63 °FScattered clouds.8 mph88%29.77 "HgN/A
6:30 PM64 °FScattered clouds.10 mph88%29.74 "HgN/A
6:00 PM64 °FThunderstorms. Partly sunny.17 mph94%29.74 "HgN/A
5:30 PM72 °FThunderstorms. Scattered clouds.9 mph65%29.68 "HgN/A
5:00 PM77 °FThunderstorms. Scattered clouds.12 mph54%29.68 "HgN/A
4:00 PM81 °FPassing clouds.5 mph42%29.71 "HgN/A
3:30 PM79 °FPassing clouds.2 mph45%29.71 "HgN/A
3:00 PM79 °FPassing clouds.5 mph45%29.71 "HgN/A
2:30 PM79 °FScattered clouds.7 mph45%29.74 "HgN/A
2:00 PM77 °FScattered clouds.7 mph51%29.77 "HgN/A
1:30 PM77 °FPassing clouds.7 mph54%29.77 "HgN/A
1:00 PM75 °FPassing clouds.8 mph57%29.77 "HgN/A
12:30 PM75 °FPassing clouds.8 mph61%29.77 "HgN/A
12:00 PM75 °FPassing clouds.5 mph61%29.80 "HgN/A
11:30 AM72 °FPassing clouds.2 mph73%29.80 "HgN/A
11:00 AM70 °FPassing clouds.1 mph78%29.80 "HgN/A
10:30 AM68 °FScattered clouds.3 mph83%29.83 "HgN/A
10:00 AM66 °FPassing clouds.6 mph83%29.83 "HgN/A
9:30 AM66 °FSunny.1 mph83%29.83 "Hg10 mi
9:00 AM63 °FSunny.1 mph94%29.83 "Hg10 mi
8:30 AM63 °FPassing clouds.3 mph88%29.83 "HgN/A
8:00 AM61 °FSunny.5 mph88%29.83 "Hg10 mi
7:30 AM59 °FPassing clouds.3 mph94%29.83 "HgN/A
7:00 AM57 °FSunny.5 mph100%29.83 "Hg10 mi
6:30 AM57 °FPassing clouds.5 mph100%29.83 "HgN/A
6:00 AM57 °FPassing clouds.3 mph100%29.83 "HgN/A
5:30 AM57 °FPassing clouds.2 mph100%29.83 "HgN/A
5:00 AM59 °FPassing clouds.3 mph94%29.83 "HgN/A
4:00 AM59 °FPassing clouds.5 mph94%29.83 "HgN/A
3:00 AM59 °FClear.5 mph94%29.83 "Hg10 mi
2:00 AM61 °FClear.5 mph94%29.86 "Hg10 mi
12:00 AM64 °FPassing clouds.3 mph94%29.86 "HgN/A
11:30 PM
Sun, May 24
63 °FThunderstorms. Partly cloudy.6 mph100%29.86 "HgN/A
11:00 PM64 °FThunderstorms. Passing clouds.2 mph100%29.89 "HgN/A
10:30 PM66 °FThunderstorms. Partly cloudy.2 mph88%29.86 "HgN/A
10:00 PM66 °FThunderstorms. Broken clouds.7 mph83%29.86 "HgN/A
9:30 PM68 °FScattered clouds.8 mph78%29.86 "HgN/A
9:00 PM68 °FScattered clouds.9 mph78%29.86 "HgN/A
Weather by CustomWeather, © 2015

See weather overviewHow to use our weather pages